Terminal Aerodrome Forecast
Issued by NWS

Home | Current Version | Previous Version | Text Only | Print | Product List | Glossary On
Versions: 1 2 3 4 5 6 7 8 9 10 11 12 13 14 15 16 17 18 19 20 21 22 23 24 25 26 27 28 29 30 31 32 33 34 35 36 37 38 39 40 41 42 43 44 45 46 47 48 49 50
000
FTAK31 PANC 252129 AAC
TAFACV
TAF AMD
PACV 252129Z 2521/2618 12008KT 6SM -SHRA BR SCT025 BKN035
      TEMPO 2521/2524 15009KT 4SM -RA BR OVC015
     FM260600 12008KT 5SM -SHRASN BR BKN025=

USA.gov is the U.S. government's official web portal to all federal, state and local government web resources and services.